Weather History for McCall, ID

Change the Weather History Date:

Sunday, March 3, 2013

  Actual Average Record
Temperature  
Mean Temperature 26 °F 26 °F  
Max Temperature 37 °F 37 °F 55 °F (1994)
Min Temperature 14 °F 14 °F -10 °F (1951)
Degree Days  
Heating Degree Days 39 39  
Month to date heating degree days 100 119  
Since 1 July heating degree days 6129 6794  
Cooling Degree Days 0 0  
Month to date cooling degree days 0 0  
Year to date cooling degree days 0 0  
Moisture  
Dew Point 21 °F    
Average Humidity 60    
Maximum Humidity 96    
Minimum Humidity 24    
Precipitation  
Precipitation 0.03 in 0.06 in 0.47 in (1991)
Month to date precipitation 0.04 0.17  
Year to date precipitation 4.38 3.64  
Sea Level Pressure  
Sea Level Pressure 29.98 in    
Wind  
Wind Speed 7 mph (West)    
Max Wind Speed 18 mph    
Max Gust Speed 26 mph    
Visibility 9 miles    
Events Rain , Snow    
T = Trace of Precipitation, MM = Missing Value Source: NWS Daily Summary

Daily Weather History Graph

Daily Weather History Graph

Search for Another Location

Airport:

Trip Planner

Search our weather history database for the weather conditions in past years. The results will help you decide how hot, cold, wet, or windy it might be!

Date:

Astronomy

Mar. 03, 2013 Rise Set
Actual Time 7:18 AM MST 6:35 PM MST
Civil Twilight 6:48 AM MST 7:04 PM MST
Nautical Twilight 6:14 AM MST 7:38 PM MST
Astronomical Twilight 5:40 AM MST 8:12 PM MST
Moon 12:34 AM MST (3/3) 10:19 AM MST (3/3)
Length of Visible Light 12h 15m
Length of Day
11h 17m
Waning Gibbous, 63% of the Moon is Illuminated
Mar 3
Waning Gibbous
Mar 4
Last Quarter
Mar 11
New
Mar 19
First Quarter
Mar 27
Full

Hourly Weather History & Observations

Time (MST) Temp. Windchill Dew Point Humidity Pressure Visibility Wind Dir Wind Speed Gust Speed Precip Events Conditions
12:51 AM 34.0 °F - 30.9 °F 89% 30.01 in 10.0 mi Calm Calm - N/A   Overcast
12:57 AM 33.8 °F - 30.2 °F 87% 29.96 in 10.0 mi Calm Calm - N/A   Overcast
1:51 AM 35.1 °F - 32.0 °F 89% 29.98 in 10.0 mi Calm Calm - 0.00 in Rain Light Rain
2:29 AM 35.6 °F - 32.0 °F 87% 29.95 in 10.0 mi Calm Calm - N/A Rain Light Rain
2:51 AM 34.0 °F - 32.0 °F 92% 29.96 in 7.0 mi Calm Calm - 0.01 in Rain Light Rain
2:57 AM 33.8 °F - 33.8 °F 100% 29.94 in 7.0 mi Calm Calm - 0.00 in Rain Light Rain
3:51 AM 36.0 °F 29.0 °F 32.0 °F 86% 29.93 in 10.0 mi South 9.2 mph - 0.01 in Rain Light Rain
4:51 AM 35.1 °F - 32.0 °F 89% 29.93 in 10.0 mi Calm Calm - 0.00 in Rain Light Rain
5:31 AM 35.6 °F 29.9 °F 30.2 °F 81% 29.91 in 10.0 mi SSW 6.9 mph - 0.00 in   Overcast
5:51 AM 36.0 °F 33.3 °F 28.9 °F 76% 29.93 in 10.0 mi South 3.5 mph - 0.00 in   Mostly Cloudy
6:51 AM 36.0 °F 29.6 °F 28.9 °F 76% 29.93 in 10.0 mi SW 8.1 mph - N/A   Overcast
7:05 AM 35.6 °F 32.8 °F 28.4 °F 75% 29.90 in 10.0 mi WSW 3.5 mph - N/A   Overcast
7:21 AM 35.6 °F 32.8 °F 30.2 °F 81% 29.90 in 10.0 mi West 3.5 mph - N/A   Overcast
7:32 AM 33.8 °F 29.6 °F 30.2 °F 87% 29.90 in 10.0 mi WSW 4.6 mph - N/A   Overcast
7:51 AM 34.0 °F 28.8 °F 30.0 °F 85% 29.94 in 3.0 mi West 5.8 mph - 0.00 in Snow Light Snow
8:21 AM 33.8 °F 27.7 °F 28.4 °F 81% 29.91 in 4.0 mi WSW 6.9 mph - 0.01 in Snow Light Snow
8:26 AM 33.8 °F 25.8 °F 30.2 °F 87% 29.92 in 5.0 mi West 10.4 mph - 0.01 in Snow Light Snow
8:32 AM 33.8 °F 26.4 °F 28.4 °F 81% 29.92 in 9.0 mi WSW 9.2 mph 17.3 mph 0.01 in   Overcast
8:51 AM 33.1 °F 25.5 °F 27.0 °F 78% 29.97 in 10.0 mi West 9.2 mph 18.4 mph 0.01 in   Overcast
8:56 AM 33.8 °F 25.3 °F 26.6 °F 75% 29.93 in 10.0 mi West 11.5 mph - N/A   Overcast
9:51 AM 34.0 °F 28.0 °F 25.0 °F 70% 29.97 in 10.0 mi Variable 6.9 mph - 0.00 in   Mostly Cloudy
10:03 AM 33.8 °F 27.0 °F 24.8 °F 70% 29.92 in 10.0 mi WSW 8.1 mph - N/A   Mostly Cloudy
10:10 AM 33.8 °F 25.3 °F 23.0 °F 65% 29.93 in 10.0 mi West 11.5 mph 17.3 mph N/A   Mostly Cloudy
10:51 AM 34.0 °F 24.6 °F 15.1 °F 46% 29.97 in 10.0 mi West 13.8 mph 23.0 mph N/A   Clear
11:51 AM 34.0 °F 25.0 °F 5.0 °F 30% 29.98 in 10.0 mi West 12.7 mph - N/A   Partly Cloudy
12:51 PM 34.0 °F 27.2 °F 3.9 °F 28% 29.99 in 10.0 mi NW 8.1 mph 19.6 mph N/A   Clear
1:51 PM 32.0 °F 21.2 °F -0.0 °F 26% 30.00 in 10.0 mi WNW 16.1 mph - N/A   Clear
3:51 PM 30.9 °F 22.2 °F 1.9 °F 29% 30.01 in 10.0 mi West 10.4 mph 18.4 mph N/A   Clear
4:51 PM 30.9 °F 23.5 °F 5.0 °F 33% 30.03 in 10.0 mi West 8.1 mph 17.3 mph N/A   Clear
5:51 PM 28.0 °F 18.6 °F 3.0 °F 34% 30.05 in 10.0 mi WNW 10.4 mph - N/A   Clear
6:51 PM 27.0 °F 21.6 °F 3.0 °F 36% 30.06 in 10.0 mi NW 4.6 mph - N/A   Clear
7:51 PM 25.0 °F 17.1 °F 3.9 °F 41% 30.09 in 10.0 mi NW 6.9 mph - N/A   Clear
8:51 PM 24.1 °F 18.2 °F 5.0 °F 44% 30.10 in 10.0 mi North 4.6 mph - N/A   Clear
9:51 PM 19.9 °F - 8.1 °F 60% 30.13 in 10.0 mi Calm Calm - N/A   Clear
10:51 PM 17.1 °F 8.7 °F 6.1 °F 62% 30.14 in 10.0 mi North 5.8 mph - N/A   Clear
11:51 PM 17.1 °F 11.7 °F 6.1 °F 62% 30.15 in 10.0 mi North 3.5 mph - N/A   Clear